Volver al catálogo

FENGYUN 1C DEB

LostSSO
NORAD 39113·DEBRIS·🇨🇳 China

Lanzado May 10, 1999 desde Taiyuan Satellite Launch Center

Loading…

Próximos Pases (próximas 24 horas)

TLE

ObsoletoSource: Space-Track

Época: Sep 29, 2022, 13:22 UTC

1 39113U 99025EWA 22272.55697716  .00001216  00000-0  72462-3 0  9997
2 39113  99.0205  17.4720 0045180  80.7189 279.9086 14.08712568495760

Sigue FENGYUN 1C DEB en tiempo real con AllMySat

Download on the App Store